This demonstration page uses our WeatherBlox Daily Observations layout. Learn more.

Left ArrowRight Arrow

Hourly Observations for July 7, 2018

Temp ( °F °C ) Dew Point ( °F °C ) Humidity (%) Winds ( mph kmh ) Pressure ( in mb ) Visibility ( mi km ) Precip ( " mm )
12:59 am 00:59 Cloudy 78 25.6 75 23.9 90 90 VRB 6 9 30.10 1019 8 13 0.00 0.03
1:20 am 01:20 Cloudy 79 26.1 75 23.9 88 88 VRB 7 11 30.09 1019 8 13 0.00 0.00
1:34 am 01:34 Mostly Cloudy 79 26.1 76 24.4 90 90 NNW 10 17 30.09 1019 8 13 0.01 0.25
1:46 am 01:46 Mostly Cloudy 78 25.6 75 23.9 90 90 NNW 8 13 30.09 1019 8 13 0.01 0.25
1:59 am 01:59 Cloudy 79 26.1 76 24.4 90 90 NNW 9 15 30.08 1019 8 13 0.01 0.25
2:28 am 02:28 Mostly Cloudy 79 26.1 75 23.9 88 88 N 8 13 30.09 1019 8 13 0.00 0.00
2:59 am 02:59 Mostly Cloudy 79 26.1 75 23.9 88 88 N 12 19 30.08 1019 9 14 0.00 0.00
3:22 am 03:22 Mostly Cloudy with Light Rain 79 26.1 73 22.8 82 82 NNE 12 19 30.09 1019 7 11 0.00 0.03
3:59 am 03:59 Cloudy with Light Rain 79 26.1 72 22.2 79 79 NNE 13 20 30.09 1019 9 14 0.00 0.03
4:59 am 04:59 Cloudy 76 24.4 65 18.3 69 69 NE 20 31 30.11 1020 10 16 0.01 0.25
5:59 am 05:59 Cloudy with Light Rain 75 23.9 63 17.2 66 66 NE 24 39 30.16 1022 9 14 0.00 0.03
6:59 am 06:59 Cloudy with Light Rain 72 22.2 65 18.3 79 79 NE 22 35 30.18 1022 5 8 0.00 0.03
7:59 am 07:59 Mostly Cloudy 73 22.8 66 18.9 79 79 NE 17 28 30.19 1022 8 13 0.01 0.25
8:59 am 08:59 Cloudy 74 23.3 67 19.4 79 79 NE 21 33 30.20 1023 10 16 0.00 0.00
9:45 am 09:45 Cloudy 75 23.9 66 18.9 74 74 NE 18 30 30.21 1023 9 14 0.00 0.00
9:59 am 09:59 Cloudy 75 23.9 65 18.3 71 71 NE 18 30 30.22 1023 9 14 0.00 0.00
10:59 am 10:59 Cloudy 75 23.9 67 19.4 76 76 NE 17 28 30.24 1024 8 13 0.00 0.00
11:59 am 11:59 Cloudy 74 23.3 66 18.9 76 76 NE 20 31 30.25 1024 7 11 0.00 0.00
12:59 pm 12:59 Cloudy 74 23.3 66 18.9 76 76 NE 17 28 30.25 1024 8 13 0.00 0.00
1:59 pm 13:59 Cloudy 75 23.9 65 18.3 71 71 NE 18 30 30.24 1024 8 13 0.00 0.00
2:59 pm 14:59 Cloudy 74 23.3 64 17.8 71 71 NE 17 28 30.24 1024 9 14 0.00 0.00
3:59 pm 15:59 Cloudy 74 23.3 64 17.8 71 71 NE 21 33 30.24 1024 9 14 0.00 0.00
4:59 pm 16:59 Mostly Cloudy 75 23.9 64 17.8 69 69 ENE 22 35 30.22 1023 10 16 0.00 0.00
5:59 pm 17:59 Mostly Cloudy 73 22.8 63 17.2 71 71 ENE 20 31 30.22 1023 9 14 0.00 0.00
6:59 pm 18:59 Mostly Cloudy 73 22.8 63 17.2 71 71 NE 17 28 30.22 1023 10 16 0.00 0.00
7:59 pm 19:59 Mostly Cloudy 73 22.8 62 16.7 69 69 ENE 18 30 30.24 1024 10 16 0.00 0.00
8:59 pm 20:59 Mostly Cloudy 71 21.7 61 16.1 71 71 NE 21 33 30.26 1025 10 16 0.00 0.00
9:59 pm 21:59 Mostly Cloudy 71 21.7 59 15 66 66 NE 21 33 30.27 1025 10 16 0.00 0.00
10:59 pm 22:59 Partly Cloudy 70 21.1 58 14.4 66 66 NE 16 26 30.26 1025 10 16 0.00 0.00
11:59 pm 23:59 Mostly Cloudy 69 20.6 59 15 70 70 NE 15 24 30.25 1024 10 16 0.00 0.00

Powered by AerisWeather